Temp
40 42 41 41 42 44 43 42 43 43 44 44 45 45 45 45 45 45 46 47 47 48 48 49 50 50 51
36 38 39 41 41 40 41 42 42 42 42 43 43 43 44 44 43 43 43 44 44 46 46 47 48 49 50
34 39 39 39 37 39 39 39 41 40 41 41 41 42 42 42 43 43 43 43 43 44 43 44 45 46 47
34 33 35 37 37 35 34 37 37 39 39 40 40 41 41 41 41 41 41 41 42 42 43 43 43 44 46
32 32 33 33 32 34 32 34 35 36 37 37 38 38 38 39 38 39 39 39 40 41 41 42 42 43 44
31 31 31 32 34 31 30 28 26 37 34 33 37 36 37 38 38 38 39 40 40 41 41 41 42 43 43
31 31 31 32 30 28 29 29 29 34 32 28 35 33 37 38 37 37 38 39 39 39 39 40 41 42 42
34 34 33 35 34 33 31 30 32 34 34 25 33 32 35 36 37 37 38 38 39 40 40 41 41 41 41
36 36 36 36 35 32 28 25 25 29 33 30 30 30 32 33 37 37 38 38 39 39 40 40 41 41 41
33 33 33 33 34 33 29 23 23 22 32 26 28 29 25 34 36 36 36 37 37 38 39 39 39 37 36
30 30 32 32 32 31 29 25 23 23 31 29 26 27 26 26 32 35 36 35 35 36 37 37 36 36 33
28 28 28 27 28 28 28 28 28 26 28 27 25 25 25 25 26 34 34 35 35 34 34 36 37 38 37
26 25 26 27 26 27 28 28 28 29 30 29 28 27 27 26 26 29 29 33 34 32 33 33 33 34 32
25 26 28 26 26 27 25 26 25 27 31 31 31 29 28 29 28 28 30 28 33 33 33 34 35 35 34
24 24 25 25 25 27 25 25 23 24 26 30 32 32 32 29 28 31 33 32 33 32 33 33 36 35 35
23 22 22 22 23 25 25 24 23 24 25 29 29 28 31 34 38 32 32 33 33 33 33 32 33 35 35
21 21 22 23 22 22 23 23 23 25 27 29 27 27 24 25 34 37 31 32 32 33 33 32 32 33 35
MSLP
1014.89 1014.40 1013.93 1013.30 1012.67 1012.31 1011.92 1011.42 1010.66 1010.00 1009.16 1008.36 1007.60 1006.99 1006.29 1005.66 1005.04 1004.43 1003.84 1003.27 1002.70 1002.25 1001.75 1001.26 1000.85 1000.62 1000.34
1014.27 1013.56 1012.94 1012.40 1011.96 1011.45 1011.01 1010.48 1009.73 1009.13 1008.51 1007.60 1006.67 1005.87 1005.22 1004.63 1004.06 1003.41 1002.85 1002.32 1001.87 1001.20 1000.80 1000.35 999.87 999.44 999.10
1013.38 1012.86 1012.34 1012.03 1011.20 1010.72 1010.11 1009.40 1008.95 1008.33 1007.58 1006.93 1006.05 1005.23 1004.38 1003.53 1002.78 1002.03 1001.46 1001.17 1000.76 1000.26 999.90 999.54 999.18 998.80 998.37
1013.37 1012.63 1012.02 1011.32 1010.81 1009.81 1008.94 1008.53 1007.76 1007.25 1006.43 1005.86 1004.89 1004.15 1003.39 1002.55 1001.74 1001.07 1000.50 1000.06 999.55 999.06 998.64 998.32 998.02 997.64 997.21
1013.01 1012.34 1011.40 1010.65 1010.15 1009.54 1008.55 1007.56 1006.75 1006.46 1005.11 1004.50 1003.62 1003.02 1002.09 1001.37 1000.67 1000.02 999.54 998.96 998.34 997.75 997.39 996.93 996.61 996.36 996.00
1012.59 1011.70 1011.05 1010.58 1009.79 1009.07 1008.23 1007.21 1005.19 1005.34 1004.41 1003.34 1002.93 1001.48 1000.83 1000.16 999.64 998.89 997.93 997.21 996.65 996.13 995.75 995.37 995.01 994.67 994.50
1012.05 1011.40 1010.60 1010.12 1009.48 1008.51 1007.61 1006.82 1005.62 1004.42 1003.97 1002.32 1001.74 1000.38 999.83 998.95 998.08 997.36 996.58 995.83 995.22 994.81 994.39 993.85 993.38 993.10 992.93
1011.60 1010.74 1010.12 1009.40 1008.82 1008.01 1007.14 1006.17 1004.97 1003.86 1003.44 1001.68 1000.58 999.42 998.57 997.62 996.60 995.85 995.13 994.39 993.68 993.06 992.57 992.06 991.76 991.55 991.29
1010.73 1010.10 1009.45 1008.74 1008.25 1007.46 1006.53 1005.85 1004.19 1002.93 1002.35 1001.40 999.89 998.70 997.62 995.75 995.01 994.43 993.77 992.99 992.32 991.66 991.00 990.44 990.02 989.74 989.35
1010.03 1009.42 1008.83 1008.05 1007.49 1007.13 1006.47 1005.56 1004.56 1002.78 1001.39 1001.19 999.80 998.87 996.41 994.57 993.90 993.46 992.37 991.72 991.09 990.26 989.64 989.06 988.57 988.28 987.86
1009.51 1008.77 1008.08 1007.36 1006.86 1006.48 1006.07 1005.46 1004.31 1003.14 1001.47 1001.09 999.60 998.73 998.09 995.54 993.09 992.13 991.61 990.49 989.84 988.98 988.29 987.67 987.17 986.85 986.18
1009.26 1008.35 1007.65 1007.06 1006.36 1005.71 1005.10 1004.41 1003.75 1002.72 1001.21 1000.70 999.53 998.47 997.00 995.26 993.48 991.23 990.39 989.45 988.75 987.77 986.94 986.12 985.42 984.75 984.30
1008.89 1008.21 1007.60 1006.76 1005.92 1005.00 1004.04 1003.23 1002.27 1001.35 1000.29 999.53 998.76 997.43 996.46 994.82 993.28 991.41 990.11 988.29 987.68 986.70 985.63 984.67 983.72 983.01 982.39
1008.88 1007.98 1007.16 1006.21 1005.24 1004.48 1003.51 1002.41 1001.35 999.83 999.10 998.36 997.51 996.59 995.10 993.78 992.71 990.96 989.64 988.76 986.83 985.59 984.28 983.01 981.83 980.89 980.18
1008.57 1007.64 1006.69 1005.80 1004.73 1003.93 1003.13 1002.05 1001.13 999.69 998.17 996.92 996.19 995.51 994.29 993.05 991.55 990.22 988.94 987.80 986.47 984.86 983.31 981.74 980.19 979.21 978.18
1008.27 1007.48 1006.49 1005.59 1004.53 1003.47 1002.74 1001.84 1000.62 999.35 998.20 996.84 995.59 994.29 992.82 991.16 990.22 989.64 988.74 987.51 985.97 984.43 982.94 981.33 979.19 977.81 976.72
1007.93 1006.96 1006.08 1005.18 1004.40 1003.24 1002.21 1001.25 1000.08 999.09 997.83 996.80 995.82 994.86 993.45 991.85 990.02 989.45 988.79 987.31 985.77 984.12 982.78 981.25 979.85 978.22 977.04
Wind_Speed
13 14 18 17 16 15 14 14 14 27 30 33 33 34 34 35 35 35 35 35 35 34 35 34 34 33 34
16 14 17 18 18 17 13 13 15 21 29 31 33 34 33 34 34 35 35 33 34 35 34 35 34 35 33
16 13 13 13 13 15 16 16 13 23 27 29 30 31 32 33 33 34 33 32 32 32 32 33 33 34 34
12 11 12 14 13 14 13 12 13 13 19 23 28 29 31 32 33 33 33 32 32 32 32 32 32 33 34
11 12 13 13 14 13 14 14 14 13 13 12 13 13 15 24 26 31 30 30 31 31 31 32 32 32 33
12 14 16 14 14 12 13 14 17 9 11 15 13 14 13 13 25 30 32 32 32 32 31 32 32 33 33
17 16 16 16 13 16 15 15 15 14 15 16 13 14 12 14 28 31 32 32 32 31 32 32 33 33 33
15 15 14 15 16 14 16 16 15 13 13 16 14 14 14 13 30 31 31 30 30 29 30 30 30 32 32
22 23 28 25 19 11 11 12 14 14 13 12 12 15 15 16 13 21 25 28 29 30 30 30 30 32 27
15 16 17 17 21 13 10 11 12 13 8 10 13 12 11 9 9 13 11 22 26 28 30 31 31 15 14
12 12 12 12 11 11 12 10 12 12 16 12 10 12 9 14 13 11 12 13 13 16 25 27 28 25 14
11 12 11 11 11 12 14 13 11 16 18 16 11 13 13 14 15 11 13 12 11 12 11 19 27 29 31
12 11 10 11 13 13 13 14 14 14 13 15 12 13 12 13 14 15 15 11 11 11 12 12 13 12 13
11 12 11 11 11 10 11 11 12 12 10 12 13 13 12 12 10 14 12 9 12 13 11 12 11 12 13
11 11 11 11 12 10 10 11 10 12 12 12 11 12 12 14 12 11 12 13 12 14 14 12 11 10 11
10 10 11 11 11 11 10 9 11 11 11 12 12 12 11 6 9 9 10 11 13 14 13 13 12 11 12
10 11 10 10 14 11 10 10 10 10 10 10 10 9 11 12 9 10 9 13 12 13 12 13 11 13 12
Wind_Direction
297 299 300 294 296 297 291 289 286 286 287 292 295 295 292 293 291 288 286 285 282 280 280 277 275 275 271
294 296 297 305 301 301 295 290 288 289 291 291 292 295 294 294 293 292 288 286 285 284 282 278 277 277 273
291 294 305 306 303 297 297 296 291 291 289 289 290 291 290 288 288 289 287 286 281 279 281 279 275 276 273
288 303 304 305 300 305 299 293 297 293 287 286 285 287 288 288 288 287 287 286 281 279 277 275 274 273 271
300 303 301 309 304 304 296 300 300 295 290 289 290 285 281 282 281 284 283 279 276 273 272 270 267 265 263
300 300 303 304 300 301 303 304 306 296 300 293 290 287 284 282 283 282 280 280 280 278 275 273 270 266 261
303 298 296 296 296 301 300 298 295 298 301 291 291 285 285 280 283 283 282 282 279 276 273 270 267 264 261
293 292 290 300 298 301 300 295 289 289 294 290 295 291 291 283 284 284 284 281 278 274 270 269 268 264 262
297 302 301 302 304 300 297 301 298 300 303 288 296 299 294 287 280 281 284 284 283 282 279 273 269 264 262
310 305 305 303 305 302 300 293 295 301 299 307 302 314 311 283 294 291 279 283 282 278 276 274 270 263 254
308 306 306 307 308 305 297 289 291 281 289 305 302 298 279 299 301 295 292 290 285 279 278 274 268 259 253
309 307 311 305 302 302 296 286 276 276 287 286 281 288 290 290 293 298 301 294 285 282 276 270 270 266 257
309 305 302 300 299 297 298 294 287 284 280 282 277 282 278 281 286 294 301 303 299 284 282 271 265 258 256
306 304 303 303 302 307 304 308 307 305 296 286 286 283 289 283 285 286 290 298 301 299 295 287 272 261 247
307 305 303 307 305 308 304 305 303 308 310 312 306 297 281 275 286 280 296 303 307 307 309 304 297 283 262
302 297 299 303 304 307 304 301 304 307 307 310 320 324 326 278 267 279 299 310 314 317 319 321 314 317 315
296 296 297 302 309 302 304 303 303 303 303 313 311 318 323 320 299 285 301 316 319 326 331 334 322 322 330